Location: Albany
(42.6526°N, 73.7562°W)
Time: 16:42:47
(UTC+00:00)

APEX - Pass Details

Date: 19 November 2019
Orbit: 334 x 1122 km, 69.9° (Epoch: 07 December)

Event Time Altitude Azimuth Distance (km) Brightness Sun altitude
Rises 23:09:32 0° 217° (SW) 2,585 7.5 -18.3°
Reaches altitude 10° 23:11:55 10° 224° (SW) 1,588 6.4 -18.8°
Maximum altitude 23:15:12 43° 298° (WNW) 578 3.8 -19.4°
Enters shadow 23:16:19 29° 350° (N) 749 4.0 -19.6°
